Probability
0 0 0 0 0 0 0 0 0 0 0 0 0 0 0 0 0 0 0 0 0 0 0 0 0 0 0 0 0 0 0 0 0 0 0 0 0 0 0 1 3 10 21 32 30 18 7 2 1
0 0 0 0 0 0 0 0 0 0 0 0 0 0 0 0 0 0 0 0 0 0 0 0 0 0 0 0 0 0 0 0 0 0 0 0 0 0 0 0 1 4 11 21 25 23 17 12 8
0 0 0 0 0 0 0 0 0 0 0 0 0 0 0 0 0 0 0 0 0 0 0 0 0 0 0 0 0 0 0 0 0 0 0 0 0 0 0 0 0 0 2 6 12 19 26 28 26
0 0 0 0 0 0 0 0 0 0 0 0 0 0 0 0 0 0 0 0 0 0 0 0 0 0 0 0 0 0 0 0 0 0 0 0 0 0 0 0 0 0 0 0 2 8 17 27 33
0 0 0 0 0 0 0 0 0 0 0 0 0 0 0 0 0 0 0 0 0 0 0 0 0 0 0 0 0 0 0 0 0 0 0 0 0 0 0 0 0 0 0 0 0 1 4 11 17
0 0 0 0 0 0 0 0 0 0 0 0 0 0 0 0 0 0 0 0 0 0 0 0 0 0 0 0 0 0 0 0 0 0 0 0 0 0 0 0 0 0 0 0 0 0 0 1 2
0 0 0 0 0 0 0 0 0 0 0 0 0 0 0 0 0 0 0 0 0 0 0 0 0 0 0 0 0 0 0 0 0 0 0 0 0 0 0 0 0 0 0 0 0 0 0 0 0
0 0 0 0 0 0 0 0 0 0 0 0 0 0 0 0 0 0 0 0 0 0 0 0 0 0 0 0 0 0 0 0 0 0 0 0 0 0 0 0 0 0 0 0 0 0 0 0 0
0 0 0 0 0 0 0 0 0 0 0 0 0 0 0 0 0 0 0 0 0 0 0 0 0 0 0 0 0 0 0 0 0 0 0 0 0 0 0 0 0 0 0 0 0 0 0 0 0
0 0 0 0 0 0 0 0 0 0 0 0 0 0 0 0 0 0 0 0 0 0 0 0 0 0 0 0 0 0 0 0 0 0 0 0 0 0 0 0 0 0 0 0 0 0 0 0 0
0 0 0 0 0 0 0 0 0 0 0 0 0 0 0 0 0 0 0 0 0 0 0 0 0 0 0 0 0 0 0 0 0 0 0 0 0 0 0 0 0 0 0 0 0 0 0 0 0
0 0 0 0 0 0 0 0 0 0 0 0 0 0 0 0 0 0 0 0 0 0 0 0 0 0 0 0 0 0 0 0 0 0 0 0 0 0 0 0 0 0 0 0 0 0 0 0 0
0 0 0 0 0 0 0 0 0 0 0 0 0 0 0 0 0 0 0 0 0 0 0 0 0 0 0 0 0 0 0 0 0 0 0 0 0 0 0 0 0 0 0 0 0 0 0 0 0
0 0 0 0 0 0 0 0 0 0 0 0 0 0 0 0 0 0 0 0 0 0 0 0 0 0 0 0 0 0 0 0 0 0 0 0 0 0 0 0 0 0 0 0 0 0 0 0 0
0 0 0 0 0 0 0 0 0 0 0 0 0 0 0 0 0 0 0 0 0 0 0 0 0 0 0 0 0 0 0 0 0 0 0 0 0 0 0 0 0 0 0 0 0 0 0 0 0
0 0 0 0 0 0 0 0 0 0 0 0 0 0 0 0 0 0 0 0 0 0 0 0 0 0 0 0 0 0 0 0 0 0 0 0 0 0 0 0 0 0 0 0 0 0 0 0 0
0 0 0 0 0 0 0 0 0 0 0 0 0 0 0 0 0 0 0 0 0 0 0 0 0 0 0 0 0 0 0 0 0 0 0 0 0 0 0 0 0 0 0 0 0 0 0 0 0
0 0 0 0 0 0 0 0 0 0 0 0 0 0 0 0 0 0 0 0 0 0 0 0 0 0 0 0 0 0 0 0 0 0 0 0 0 0 0 0 0 0 0 0 0 0 0 0 0
0 0 0 0 0 0 0 0 0 0 0 0 0 0 0 0 0 0 0 0 0 0 0 0 0 0 0 0 0 0 0 0 0 0 0 0 0 0 0 0 0 0 0 0 0 0 0 0 0
0 0 0 0 0 0 0 0 0 0 0 0 0 0 0 0 0 0 0 0 0 0 0 0 0 0 0 0 0 0 0 0 0 0 0 0 0 0 0 0 0 0 0 0 0 0 0 0 0
0 0 0 0 0 0 0 0 0 0 0 0 0 0 0 0 0 0 0 0 0 0 0 0 0 0 0 0 0 0 0 0 0 0 0 0 0 0 0 0 0 0 0 0 0 0 0 0 0
0 0 0 0 0 0 0 0 0 0 0 0 0 0 0 0 0 0 0 0 0 0 0 0 0 0 0 0 0 0 0 0 0 0 0 0 0 0 0 0 0 0 0 0 0 0 0 0 0
0 0 0 0 0 0 0 0 0 0 0 0 0 0 0 0 0 0 0 0 0 0 0 0 0 0 0 0 0 0 0 0 0 0 0 0 0 0 0 0 0 0 0 0 0 0 0 0 0
0 0 0 0 0 0 0 0 0 0 0 0 0 0 0 0 0 0 0 0 0 0 0 0 0 0 0 0 0 0 0 0 0 0 0 0 0 0 0 0 0 0 0 0 0 0 0 0 0
0 0 0 0 0 0 0 0 0 0 0 0 0 0 0 0 0 0 0 0 0 0 0 0 0 0 0 0 0 0 0 0 0 0 0 0 0 0 0 0 0 0 0 0 0 0 0 0 0
0 0 0 0 0 0 0 0 0 0 0 0 0 0 0 0 0 0 0 0 0 0 0 0 0 0 0 0 0 0 0 0 0 0 0 0 0 0 0 0 0 0 0 0 0 0 0 0 0
0 0 0 0 0 0 0 0 0 0 0 0 0 0 0 0 0 0 0 0 0 0 0 0 0 0 0 0 0 0 0 0 0 0 0 0 0 0 0 0 0 0 0 0 0 0 0 0 0
0 0 0 0 0 0 0 0 0 0 0 0 0 0 0 0 0 0 0 0 0 0 0 0 0 0 0 0 0 0 0 0 0 0 0 0 0 0 0 0 0 0 0 0 0 0 0 0 0
0 0 0 0 0 0 0 0 0 0 0 0 0 0 0 0 0 0 0 0 0 0 0 0 0 0 0 0 0 0 0 0 0 0 0 0 0 0 0 0 0 0 0 0 0 0 0 0 0
0 0 0 0 0 0 0 0 0 0 0 0 0 0 0 0 0 0 0 0 0 0 0 0 0 0 0 0 0 0 0 0 0 0 0 0 0 0 0 0 0 0 0 0 0 0 0 0 0
Wind_Speed
9 5 4 6 10 11 9 7 4 5 6 5 8 11 9 8 9 9 3 10 12 12 14 18 27 27 27 27 27 27 27 27 27 27 28 28 27 27 27 27 26 26 24 22 19 15 13 13 13
4 5 8 9 9 9 6 5 8 5 10 8 8 7 7 7 3 4 6 10 14 16 16 18 26 27 27 27 28 28 27 27 27 27 27 27 27 27 26 27 27 27 26 26 24 21 17 14 13
2 7 10 9 8 6 5 3 9 12 9 5 6 5 6 5 4 6 8 12 15 16 15 18 27 28 28 27 28 28 27 28 28 27 27 26 26 26 26 27 26 26 26 26 26 25 22 19 16
5 9 10 11 13 6 4 4 3 4 9 8 6 7 6 8 6 7 9 14 14 12 12 17 27 28 28 27 28 28 27 28 27 27 27 27 27 26 26 27 27 27 27 26 26 26 26 24 20
7 9 11 8 7 4 5 10 11 9 7 7 7 9 6 10 9 9 11 14 12 10 11 17 27 28 28 27 28 28 27 27 27 27 27 27 27 27 27 28 27 27 27 26 26 26 27 27 25
8 8 9 6 5 4 3 6 4 9 6 4 7 7 7 6 9 9 11 11 10 11 13 16 25 28 29 28 28 28 28 28 27 27 27 26 27 27 27 28 28 28 27 26 26 26 27 26 26
8 8 7 7 5 3 2 4 6 5 7 6 3 7 5 7 7 7 9 9 9 11 13 14 14 18 24 26 27 28 27 28 27 27 27 26 26 27 27 28 28 28 28 27 27 27 27 27 25
6 9 6 5 5 2 1 4 4 6 5 4 5 7 5 3 4 7 8 9 10 10 11 13 12 13 14 13 23 26 26 27 27 27 26 25 24 24 26 26 27 28 27 27 27 28 28 27 25
7 9 5 4 7 6 4 5 5 6 9 10 9 9 6 4 7 10 10 10 11 14 11 11 13 15 15 13 18 19 22 24 23 19 24 20 11 12 15 23 27 28 27 27 27 27 27 26 23
9 7 3 2 6 8 6 6 6 6 7 8 8 8 7 8 9 10 10 10 11 12 13 12 12 14 13 12 10 8 10 11 12 10 10 9 9 11 16 22 25 26 26 26 27 27 24 19 13
9 7 5 7 9 8 6 4 4 8 5 5 8 6 6 8 7 7 7 6 7 8 10 10 9 10 11 9 8 6 7 7 10 11 10 8 7 8 9 8 11 13 17 14 18 16 12 12 12
9 7 6 5 5 6 5 5 6 4 6 8 9 8 6 7 5 5 5 6 6 7 7 8 7 10 10 9 8 6 7 7 8 10 10 7 6 7 8 7 9 8 8 10 11 10 13 14 14
8 6 5 8 12 10 10 8 7 6 8 9 9 9 7 6 4 4 6 6 5 6 8 9 9 12 11 9 9 9 8 9 9 8 8 9 7 8 7 7 7 7 7 9 9 11 13 14 14
7 10 9 8 9 5 10 6 6 6 8 9 9 7 6 5 5 5 5 5 6 8 9 9 8 10 11 9 9 8 8 9 8 8 9 10 7 7 8 8 7 7 8 9 8 10 11 11 11
8 8 4 3 5 5 8 5 2 7 8 8 7 7 6 4 5 6 4 5 5 5 6 8 9 9 9 8 9 8 7 9 8 8 8 10 9 8 8 7 7 8 9 10 9 8 8 10 11
5 5 3 4 6 6 6 4 4 5 9 8 6 6 5 4 5 5 4 4 4 4 5 7 10 8 7 7 7 6 6 7 8 8 7 10 11 10 8 6 6 8 8 8 9 8 9 9 10
2 2 3 4 7 6 5 5 6 5 9 7 6 5 5 5 5 4 4 4 3 4 5 6 7 7 7 6 5 5 5 6 6 6 7 10 11 11 9 6 5 7 7 7 9 10 10 11 11
3 4 3 5 5 5 5 5 5 4 9 7 5 5 5 6 5 3 2 3 3 5 5 6 7 7 7 5 5 4 4 5 5 5 7 10 10 12 10 6 7 7 7 7 8 10 10 10 11
1 5 3 4 2 5 6 7 7 5 7 6 5 5 6 5 4 3 2 4 5 6 6 6 7 7 6 6 8 8 8 7 6 6 9 10 11 12 9 8 8 8 7 9 9 10 11 10 10
5 5 2 1 0 4 4 5 4 4 6 6 6 6 5 4 2 2 5 4 4 4 5 6 7 7 7 6 5 5 6 5 5 6 7 8 10 11 10 10 8 8 8 9 9 9 7 9 10
4 2 2 3 1 3 5 2 4 3 3 4 5 5 5 5 3 3 3 2 2 4 5 8 7 7 7 7 6 7 4 4 4 5 5 7 9 9 9 10 8 8 7 7 9 7 8 10 9
0 2 2 4 3 3 4 4 6 5 4 4 4 4 4 3 2 1 1 1 2 4 4 6 6 6 6 7 7 9 9 7 7 6 6 8 8 9 8 10 8 8 7 7 8 8 7 8 9
4 3 2 2 3 1 1 3 5 5 6 6 5 5 4 3 3 1 0 1 3 4 5 5 6 6 6 7 7 8 8 6 7 8 8 7 7 7 8 10 7 9 8 7 8 8 7 7 8
2 2 2 3 3 3 4 6 6 6 7 6 5 6 5 4 3 1 1 3 4 4 5 5 6 6 6 7 7 8 9 9 11 11 9 8 6 6 9 11 7 9 8 8 9 8 9 8 10
7 6 5 6 4 6 2 4 6 4 5 7 8 7 6 4 2 1 3 4 5 6 6 6 6 6 7 7 7 8 8 8 10 11 10 10 9 7 9 10 8 8 8 9 9 9 9 10 10
4 3 3 3 5 7 5 5 4 4 3 4 7 6 5 3 1 2 3 4 5 6 6 6 7 7 7 7 8 8 7 7 7 9 10 10 9 10 10 10 10 10 10 12 10 9 9 9 10
1 2 3 4 2 5 7 5 4 2 3 5 5 5 4 2 0 3 4 5 5 6 6 6 7 7 8 8 8 7 8 8 9 10 9 8 9 11 12 13 11 10 11 11 10 8 10 11 10
1 5 4 2 2 6 8 7 5 8 8 7 6 6 4 2 1 3 4 4 5 5 5 6 6 7 8 8 7 11 9 9 9 9 11 11 12 12 13 13 12 11 12 11 10 10 10 12 11
1 1 3 3 3 3 6 9 3 8 8 9 8 6 5 3 0 2 3 4 5 5 6 6 7 8 8 8 8 9 9 9 9 9 10 11 11 12 13 14 13 13 13 11 10 11 13 12 12
2 3 5 2 3 4 4 10 1 6 6 7 7 6 5 2 1 1 3 4 5 6 6 7 7 8 8 8 8 9 10 10 10 10 11 11 12 12 13 14 14 14 14 13 12 13 13 12 12
Wind_Direction
332 351 54 56 60 62 56 13 39 110 72 55 60 75 84 72 78 101 295 338 1 13 7 6 15 13 13 16 16 17 18 17 17 17 15 13 12 12 10 9 6 2 357 351 342 330 322 315 311
345 33 49 54 66 69 58 15 56 82 137 134 77 72 74 75 61 64 7 12 29 26 13 8 15 14 13 14 15 13 15 15 14 15 14 13 11 10 10 9 6 3 359 356 351 341 326 312 303
55 57 61 57 60 71 77 32 94 79 84 89 82 56 57 40 23 42 23 32 35 28 14 4 16 14 13 13 14 12 13 13 11 11 11 11 11 9 8 7 3 1 359 356 353 350 342 327 312
76 52 62 66 74 40 37 327 283 93 68 45 95 62 56 22 39 46 41 41 35 25 13 7 16 15 12 13 14 12 11 11 10 9 8 9 8 8 7 6 2 0 358 355 353 352 351 345 331
64 68 72 66 74 69 32 21 44 52 64 36 75 87 56 18 47 47 43 40 33 20 16 11 15 14 12 12 13 11 11 10 9 8 7 9 8 5 6 5 359 358 356 353 354 354 351 349 344
64 66 80 88 101 109 58 32 54 52 73 75 86 100 68 11 45 37 39 34 28 22 19 14 13 13 10 10 11 9 9 9 8 7 7 9 8 4 5 2 357 356 354 352 353 351 348 346 344
88 78 87 108 108 74 84 71 45 50 46 28 82 94 91 26 36 41 39 30 25 25 22 14 11 10 7 7 10 8 8 7 7 7 7 9 7 4 4 359 354 354 352 353 352 350 347 345 343
96 93 89 101 126 137 63 68 64 55 45 18 62 92 83 34 34 43 39 32 27 26 22 13 9 7 2 359 8 8 7 6 7 7 8 11 8 4 4 356 353 353 351 354 351 349 346 345 342
67 75 91 145 154 146 135 104 67 51 71 58 58 82 108 82 48 42 34 29 26 23 17 13 12 8 2 359 2 4 5 2 3 4 9 10 2 357 3 353 353 352 351 352 348 348 348 346 341
57 87 70 30 134 131 119 105 116 91 75 75 75 76 77 61 50 45 34 23 20 19 16 15 15 7 1 359 354 358 359 355 353 356 7 5 1 359 3 352 352 352 351 350 346 345 348 346 337
65 94 88 63 88 102 102 80 93 119 87 115 121 109 82 68 56 53 43 34 28 19 12 6 11 4 360 357 353 6 356 352 350 352 5 2 359 357 357 350 348 347 351 346 341 341 342 340 335
85 64 94 111 96 89 99 101 81 95 135 143 135 127 105 84 70 67 58 43 29 18 4 360 14 8 1 358 353 4 356 352 352 350 360 1 359 358 353 349 341 346 347 339 338 334 334 335 331
82 95 66 86 78 79 87 89 103 119 138 130 119 112 116 115 104 82 70 54 33 22 14 9 19 14 2 2 357 360 355 353 347 347 356 359 359 355 347 343 337 338 338 335 334 332 333 332 330
106 103 105 97 95 99 108 110 107 155 144 125 121 126 135 128 110 83 65 47 34 28 16 4 16 12 0 4 358 354 353 349 344 345 352 355 354 351 346 338 335 338 336 329 327 322 329 325 326
96 93 99 136 119 135 116 72 129 161 139 130 136 145 148 123 92 90 83 64 44 30 14 9 13 10 357 359 355 354 348 346 344 344 350 351 350 348 343 335 339 341 334 330 327 322 325 324 324
92 103 135 195 157 168 116 136 214 165 135 141 153 155 144 109 93 100 87 79 57 32 23 16 7 2 354 354 346 341 343 344 341 343 348 348 348 348 339 331 340 338 335 335 331 334 330 325 322
112 150 182 193 191 167 140 168 217 170 136 143 157 157 146 113 98 97 81 81 66 37 25 14 358 354 347 343 335 326 333 337 338 341 345 346 346 345 338 325 335 337 337 335 337 338 331 328 326
207 197 189 206 196 143 132 166 189 153 130 145 148 131 129 116 116 119 93 77 57 31 20 12 352 345 341 338 336 334 340 339 337 338 344 347 345 343 337 339 336 339 339 337 337 333 331 328 326
180 136 166 219 170 124 148 166 188 147 134 153 142 119 120 118 131 143 80 53 37 23 8 0 350 346 351 354 355 351 348 343 341 341 343 344 342 341 338 347 338 343 338 332 333 331 333 333 331
89 108 151 248 326 115 140 188 199 170 174 167 139 133 129 120 129 71 45 35 24 8 352 358 355 352 354 351 341 334 325 319 326 321 327 334 338 337 344 342 336 338 334 330 331 330 333 329 333
52 95 198 208 217 102 128 186 191 203 182 124 116 128 130 129 104 53 26 19 359 359 358 4 351 349 348 345 343 340 323 312 322 320 326 329 329 329 330 332 328 329 329 326 325 326 333 325 322
278 216 205 145 145 255 179 272 213 197 193 155 145 133 128 123 111 81 336 351 4 355 356 354 345 342 344 346 348 347 345 333 326 322 317 316 317 318 325 326 324 324 321 320 320 334 317 316 316
265 244 223 173 178 279 201 232 268 166 200 196 178 158 158 160 153 182 240 13 8 357 353 346 338 337 341 344 342 338 332 322 320 322 319 316 313 313 321 321 322 322 317 313 312 312 310 308 303
299 47 74 57 81 293 214 184 253 203 200 181 168 167 178 180 189 207 3 3 353 353 349 340 336 333 338 341 338 331 328 326 328 329 324 324 320 316 317 319 321 318 314 311 310 308 307 302 297
33 55 22 353 355 268 230 196 254 207 175 171 170 179 189 197 212 327 357 353 348 346 340 333 336 335 338 338 335 327 326 324 324 327 327 327 326 325 317 318 316 316 312 310 310 308 305 299 298
9 89 122 265 270 293 318 255 269 219 181 133 145 167 185 203 226 10 7 358 344 337 334 335 339 337 337 336 331 324 326 327 325 325 325 325 324 320 314 317 312 310 312 313 309 304 302 301 301
53 98 150 147 295 286 285 287 292 223 167 140 155 176 193 199 51 25 8 357 344 338 339 338 338 337 334 331 325 327 327 321 321 321 321 321 321 320 321 315 310 308 307 307 306 302 302 299 296
145 141 91 115 303 294 294 284 251 203 209 182 186 196 196 199 33 23 357 347 342 341 339 337 338 332 324 323 320 337 322 315 317 320 322 322 320 318 315 316 313 308 307 304 302 302 299 298 295
190 200 139 136 175 223 288 278 244 190 183 182 192 194 197 204 69 352 341 345 343 342 340 337 337 332 326 319 313 316 315 316 317 318 319 319 316 315 317 318 315 312 308 304 301 298 298 297 297
233 217 157 174 252 207 244 274 93 156 162 165 177 188 195 185 141 3 359 350 343 344 342 340 335 331 324 318 318 320 318 318 318 319 318 317 315 316 318 317 315 313 311 306 299 296 296 293 293